Regional Weather Roundup
Issued by NWS

Home | Current Version | Previous Version | Graphics & Text | Print | Product List | Glossary On
Versions: 1 2 3 4 5 6 7 8 9 10 11 12 13 14 15 16 17 18 19 20 21 22 23 24 25 26 27 28 29 30 31 32 33 34 35 36 37 38 39 40 41 42 43 44 45 46 47 48 49 50
745
ASUS43 KOAX 281702
RWRNE

WEATHER ROUNDUP FOR NEBRASKA
NATIONAL WEATHER SERVICE OMAHA NE
1200 PM CDT SAT MAY 28 2016

NOTES: SATELLITE DATA IS BEING USED TO AUGMENT CLOUD COVER ABOVE
       12000 FEET.
       "FAIR" INDICATES FEW OR NO CLOUDS BELOW 12,000 FEET WITH NO
       SIGNIFICANT WEATHER AND/OR OBSTRUCTIONS TO VISIBILITY.

  * THESE STATIONS DO NOT REPORT WEATHER SUCH AS RAIN...SNOW OR FOG.

NEZ001>004-019>022-054>056-281800-
NEBRASKA PANHANDLE

CITY           SKY/WX    TMP DP  RH WIND       PRES   REMARKS
SCOTTSBLUFF    SUNNY     69  44  40 W7        29.97S
ALLIANCE       SUNNY     66  47  50 MISG      29.95R
CHADRON        SUNNY     69  47  45 VRB6      29.93R
SIDNEY         SUNNY     66  46  48 W8        30.00R
$$

NEZ057>060-069>072-079>082-281800-
SOUTHWEST NEBRASKA

CITY           SKY/WX    TMP DP  RH WIND       PRES   REMARKS
NORTH PLATTE   MOSUNNY   68  53  58 W9        29.93R
IMPERIAL       SUNNY     66  49  54 NW8       29.97R
LEXINGTON      MOSUNNY   68  57  68 NW8       29.91S
MCCOOK         MOSUNNY   69  54  58 VRB6      29.94R
$$

NEZ005>010-023>029-035>040-094-281800-
NORTH CENTRAL NEBRASKA

CITY           SKY/WX    TMP DP  RH WIND       PRES   REMARKS
VALENTINE      CLOUDY    67  51  56 NW13      29.89R
AINSWORTH      CLOUDY    63  53  68 NW10      29.89R
BROKEN BOW     MOSUNNY   65  53  65 NW14G21   29.89R
ORD            PTSUNNY   65  57  75 NW13      29.85R
$$

NEZ041-046>049-061>064-073>077-083>087-281800-
SOUTH CENTRAL NEBRASKA

CITY           SKY/WX    TMP DP  RH WIND       PRES   REMARKS
GRAND ISLAND   PTSUNNY   68  56  65 NW16G22   29.85S
HASTINGS       PTSUNNY   68  55  63 NW15      29.87R
KEARNEY *      PTSUNNY   68  54  60 W15       29.90R
YORK           PTSUNNY   66  57  72 W18       29.83S
$$

NEZ011>018-030>034-042>045-281800-
NORTHEAST NEBRASKA

CITY           SKY/WX    TMP DP  RH WIND       PRES   REMARKS
NORFOLK        CLOUDY    61  55  81 NW22G28   29.76R
BLAIR          CLOUDY    69  60  73 SW13      29.78S
FREMONT        LGT RAIN  64  58  79 W10       29.79R
TEKAMAH        MOSUNNY   70  58  65 SW13      29.76S
$$

NEZ050>053-065>068-078-088>093-281800-
SOUTHEAST NEBRASKA

CITY           SKY/WX    TMP DP  RH WIND       PRES   REMARKS
LINCOLN        CLOUDY    70  55  59 W15       29.83R
OMAHA EPPLEY   PTSUNNY   69  58  67 SW9       29.78S
FALLS CITY     CLOUDY    68  59  73 W10       29.83R
PLATTSMOUTH    CLOUDY    69  60  73 SW10      29.81S
$$

NEZ044-045-051>053-067-281800-
OMAHA AREA

CITY           SKY/WX    TMP DP  RH WIND       PRES   REMARKS
OMAHA EPPLEY   PTSUNNY   69  58  67 SW9       29.78S
BLAIR          CLOUDY    69  60  73 SW13      29.78S
FREMONT        LGT RAIN  64  58  79 W10       29.79R
OFFUTT AFB     PTSUNNY   70  59  68 SW10      29.79S
PLATTSMOUTH    CLOUDY    69  60  73 SW10      29.81S
$$




USA.gov is the U.S. government's official web portal to all federal, state and local government web resources and services.